INMARSAT 5-F1

Last updated on Sun Jun 21 2026 00:03:05 GMT+0000 (Coordinated Universal Time)

1 39476U 13073A 26171.02070874 .00000023 00000+0 00000+0 0 9991 2 39476 0.0172 24.3286 0000585 304.0026 9.9817 1.00271043 45606
UTC large
Height (km)
Speed (km/s)
/
Latitude / Longitude
Inclination (degrees)
Orbital Period (minutes)
Azimuth
Elevation
Range (km)
Doppler Factor

Next 0 passes for location: London (51.5072 / 0.1276)

No passes found over London.
INMARSAT 5-F1